Weather History for VTSS - December, 2013

Change the Weather History Date:

Monday, December 30, 2013

  Actual Average Record
Temperature  
Mean Temperature 78 °F -  
Max Temperature 82 °F 85 °F 87 °F (2003)
Min Temperature 74 °F 72 °F 69 °F (2007)
Cooling Degree Days 13    
Growing Degree Days 28 (Base 50)    
Moisture  
Dew Point 71 °F    
Average Humidity 80    
Maximum Humidity 89    
Minimum Humidity 61    
Precipitation  
Precipitation 0.02 in - - ()
Sea Level Pressure  
Sea Level Pressure 29.90 in    
Wind  
Wind Speed 4 mph ()    
Max Wind Speed 14 mph    
Max Gust Speed -    
Visibility 3.4 miles    
Events Rain    
Averages and records for this station are not official NWS values.
T = Trace of Precipitation, MM = Missing Value Source: Averaged Metar Reports

Daily Weather History Graph

Daily Weather History Graph

Search for Another Location

Airport or City:

Trip Planner

Search our weather history database for the weather conditions in past years. The results will help you decide how hot, cold, wet, or windy it might be!

Date:

Astronomy

Dec. 30, 2013 Rise Set
Actual Time 6:29 AM ICT 6:12 PM ICT
Civil Twilight 6:06 AM ICT 6:35 PM ICT
Nautical Twilight 5:40 AM ICT 7:01 PM ICT
Astronomical Twilight 5:14 AM ICT 7:27 PM ICT
Moon 3:56 AM ICT (12/30) 4:05 PM ICT (12/30)
Length of Visible Light 12h 28m
Length of Day
11h 43m
Waning Crescent, 7% of the Moon is Illuminated
Dec 30
Waning Crescent
Jan 1
New
Jan 8
First Quarter
Jan 16
Full
Jan 24
Last Quarter

Hourly Weather History & Observations

Time (ICT) Temp. Heat Index Dew Point Humidity Pressure Visibility Wind Dir Wind Speed Gust Speed Precip Events Conditions
12:00 AM 75.2 °F - 71.6 °F 89% 29.92 in 2.5 mi Calm Calm - N/A   Mostly Cloudy
12:30 AM 75.2 °F - 71.6 °F 89% 29.92 in 2.5 mi Calm Calm - N/A   Mostly Cloudy
1:00 AM 75 °F - 71 °F 84% 29.91 in 2 mi NW 4.6 mph - -   Mist
1:00 AM 75.2 °F - 71.6 °F 89% 29.89 in 2.5 mi NW 4.6 mph - N/A   Mostly Cloudy
1:30 AM 75.2 °F - 71.6 °F 89% 29.89 in 2.5 mi Calm Calm - N/A   Mostly Cloudy
2:00 AM 75.2 °F - 71.6 °F 89% 29.89 in 2.5 mi Calm Calm - N/A   Mostly Cloudy
2:30 AM 75.2 °F - 71.6 °F 89% 29.89 in 2.5 mi Calm Calm - N/A   Mostly Cloudy
3:00 AM 75.2 °F - 69.8 °F 83% 29.86 in 3.1 mi Calm Calm - N/A   Mostly Cloudy
3:30 AM 75.2 °F - 69.8 °F 83% 29.86 in 3.1 mi Calm Calm - N/A   Mostly Cloudy
4:00 AM 75 °F - 70 °F 81% 29.87 in 3 mi WNW 3.5 mph - -   Mist
4:00 AM 75.2 °F - 69.8 °F 83% 29.86 in 3.1 mi WNW 3.5 mph - N/A   Mostly Cloudy
4:30 AM 75.2 °F - 71.6 °F 89% 29.86 in 3.1 mi Calm Calm - N/A   Mostly Cloudy
5:00 AM 75.2 °F - 71.6 °F 89% 29.86 in 3.1 mi Calm Calm - N/A   Mostly Cloudy
5:30 AM 75.2 °F - 71.6 °F 89% 29.89 in 3.1 mi Calm Calm - N/A   Mostly Cloudy
6:00 AM 75.2 °F - 71.6 °F 89% 29.89 in 3.1 mi Calm Calm - N/A   Mostly Cloudy
6:30 AM 75.2 °F - 71.6 °F 89% 29.89 in 3.1 mi Calm Calm - N/A   Mostly Cloudy
7:00 AM 75 °F - 71 °F 83% 29.92 in 3 mi Calm Calm - -   Mist
7:00 AM 75.2 °F - 71.6 °F 89% 29.92 in 3.1 mi Calm Calm - N/A   Overcast
7:30 AM 75.2 °F - 71.6 °F 89% 29.92 in 2.5 mi NNE 3.5 mph - N/A Rain Light Rain
8:00 AM 75.2 °F - 71.6 °F 89% 29.95 in 2.5 mi East 2.3 mph - N/A Rain Light Rain
8:30 AM 75.2 °F - 71.6 °F 89% 29.95 in 3.1 mi WNW 3.5 mph - N/A   Mostly Cloudy
9:00 AM 78.8 °F - 73.4 °F 83% 29.95 in 3.1 mi NNW 3.5 mph - N/A   Mostly Cloudy
9:30 AM 80.6 °F 85.4 °F 73.4 °F 79% 29.95 in 3.7 mi NE 5.8 mph - N/A   Overcast
10:00 AM 81 °F - 72 °F 68% 29.97 in 4 mi NE 9.2 mph - -   Mist
10:30 AM 82.4 °F 88.2 °F 73.4 °F 74% 29.95 in 4.3 mi East 9.2 mph - N/A   Mostly Cloudy
11:00 AM 82.4 °F 87.2 °F 71.6 °F 70% 29.95 in 4.3 mi ENE 11.5 mph - N/A   Overcast
11:30 AM 82.4 °F 87.2 °F 71.6 °F 70% 29.95 in 4.3 mi East 11.5 mph - N/A   Overcast
12:00 PM 82.4 °F 87.2 °F 71.6 °F 70% 29.92 in 4.3 mi ENE 10.4 mph - N/A   Overcast
12:30 PM 82.4 °F 87.2 °F 71.6 °F 70% 29.92 in 4.3 mi East 12.7 mph - N/A   Overcast
1:00 PM 81 °F - 70 °F 61% 29.91 in 4 mi East 11.5 mph - -   Mist
1:00 PM 80.6 °F 83.9 °F 69.8 °F 70% 29.89 in 4.3 mi East 11.5 mph - N/A   Overcast
1:30 PM 82.4 °F 87.2 °F 71.6 °F 70% 29.89 in 4.3 mi East 9.2 mph - N/A   Overcast
2:00 PM 82.4 °F 87.2 °F 71.6 °F 70% 29.86 in 4.3 mi ENE 13.8 mph - N/A   Mostly Cloudy
2:30 PM 80.6 °F 84.6 °F 71.6 °F 74% 29.86 in 4.3 mi ENE 12.7 mph - N/A   Mostly Cloudy
3:00 PM 80.6 °F 84.6 °F 71.6 °F 74% 29.86 in 4.3 mi East 11.5 mph - N/A   Overcast
3:30 PM 80.6 °F 84.6 °F 71.6 °F 74% 29.86 in 4.3 mi East 10.4 mph - N/A   Overcast
4:00 PM 81 °F - 71 °F 65% 29.86 in 4 mi ENE 8.1 mph - - Rain Light Rain
4:00 PM 80.6 °F 84.6 °F 71.6 °F 74% 29.83 in 4.3 mi ENE 8.1 mph - N/A   Overcast
4:30 PM 80.6 °F 83.9 °F 69.8 °F 70% 29.86 in 4.3 mi ENE 8.1 mph - N/A Rain Light Rain
5:00 PM 78.8 °F - 69.8 °F 74% 29.86 in 4.3 mi ENE 8.1 mph - N/A   Overcast
5:30 PM 78.8 °F - 71.6 °F 78% 29.86 in 4.3 mi ENE 6.9 mph - N/A   Overcast
6:00 PM 78.8 °F - 71.6 °F 78% 29.86 in 4.3 mi ENE 5.8 mph - N/A   Overcast
6:30 PM 78.8 °F - 71.6 °F 78% 29.89 in 4.3 mi ENE 8.1 mph - N/A   Overcast
7:00 PM 78 °F - 71 °F 74% 29.91 in 4 mi NE 8.1 mph - -   Mist
7:00 PM 78.8 °F - 71.6 °F 78% 29.89 in 3.7 mi NE 8.1 mph - N/A   Overcast
7:30 PM 77.0 °F - 71.6 °F 83% 29.92 in 3.1 mi ENE 6.9 mph - N/A Rain Light Rain
8:00 PM 77.0 °F - 71.6 °F 83% 29.92 in 3.1 mi ENE 4.6 mph - N/A   Mostly Cloudy
8:30 PM 77.0 °F - 71.6 °F 83% 29.92 in 3.1 mi NNE 4.6 mph - N/A   Mostly Cloudy
9:00 PM 77.0 °F - 71.6 °F 83% 29.95 in 3.1 mi NNE 3.5 mph - N/A   Mostly Cloudy
9:30 PM 77.0 °F - 71.6 °F 83% 29.95 in 3.1 mi West 2.3 mph - N/A   Mostly Cloudy
10:00 PM 76 °F - 71 °F 82% 29.96 in 3 mi WSW 2.3 mph - -   Mist
10:00 PM 77.0 °F - 71.6 °F 83% 29.95 in 3.1 mi WSW 2.3 mph - N/A   Mostly Cloudy
10:30 PM 77.0 °F - 71.6 °F 83% 29.95 in 3.1 mi West 2.3 mph - N/A   Mostly Cloudy
11:00 PM 75.2 °F - 71.6 °F 89% 29.95 in 3.1 mi NE 3.5 mph - N/A   Mostly Cloudy
11:30 PM 77.0 °F - 71.6 °F 83% 29.95 in 3.1 mi NNE 4.6 mph - N/A   Mostly Cloudy